Greeley, CO

7:38 AM MDT on June 28, 2017 (GMT -0600)
Greeley-Weld County

Weather History for KGXY - October, 2012

Change the Weather History Date:

Monday, October 22, 2012

  Actual Average Record
Temperature  
Mean Temperature 49 °F -  
Max Temperature 66 °F - 84 °F (2003)
Min Temperature 32 °F - 14 °F (1996)
Degree Days  
Heating Degree Days 16    
Month to date heating degree days  
Cooling Degree Days 0    
Month to date cooling degree days  
Moisture  
Dew Point 34 °F    
Average Humidity 66    
Maximum Humidity 87    
Minimum Humidity 37    
Precipitation  
Precipitation 0.00 in - 1.93 in (1978)
Sea Level Pressure  
Sea Level Pressure 29.86 in    
Wind  
Wind Speed 7 mph (NE)    
Max Wind Speed 14 mph    
Max Gust Speed 16 mph    
Visibility 10 miles    
Events      
T = Trace of Precipitation, MM = Missing Value Source: NWS Daily Summary

Daily Weather History Graph

Daily Weather History Graph

Search for Another Location

Airport or City:

Trip Planner

Search our weather history database for the weather conditions in past years. The results will help you decide how hot, cold, wet, or windy it might be!

Date:

Astronomy

Oct. 22, 2012 Rise Set
Actual Time 7:17 AM MDT 6:07 PM MDT
Civil Twilight 6:49 AM MDT 6:35 PM MDT
Nautical Twilight 6:18 AM MDT 7:07 PM MDT
Astronomical Twilight 5:46 AM MDT 7:38 PM MDT
Moon 2:18 PM MDT (10/22) 12:05 AM MDT (10/22)
Length of Visible Light 11h 45m
Length of Day
10h 49m
First Quarter, 57% of the Moon is Illuminated
Oct 22
First Quarter
Oct 29
Full
Nov 6
Last Quarter
Nov 13
New
Nov 20
First Quarter

Hourly Weather History & Observations

Time (MDT) Temp. Windchill Dew Point Humidity Pressure Visibility Wind Dir Wind Speed Gust Speed Precip Events Conditions
12:15 AM 42.8 °F 38.0 °F 32.0 °F 66% 29.96 in 10.0 mi NNW 8.1 mph - N/A   Clear
12:35 AM 41.0 °F 36.4 °F 30.2 °F 65% 29.95 in 10.0 mi NNW 6.9 mph - N/A   Clear
12:55 AM 39.2 °F 35.0 °F 30.2 °F 70% 29.96 in 10.0 mi NNW 5.8 mph - N/A   Clear
1:15 AM 39.2 °F 34.2 °F 30.2 °F 70% 29.96 in 10.0 mi North 6.9 mph - N/A   Clear
1:35 AM 37.4 °F 32.1 °F 30.2 °F 75% 29.95 in 10.0 mi North 6.9 mph - N/A   Clear
1:55 AM 37.4 °F 32.8 °F 30.2 °F 75% 29.95 in 10.0 mi North 5.8 mph - N/A   Clear
2:15 AM 37.4 °F 32.1 °F 30.2 °F 75% 29.95 in 10.0 mi North 6.9 mph - N/A   Clear
2:55 AM 35.6 °F 31.7 °F 28.4 °F 75% 29.95 in 9.0 mi NNE 4.6 mph - N/A   Clear
3:15 AM 35.6 °F 29.9 °F 28.4 °F 75% 29.94 in 10.0 mi NNE 6.9 mph - N/A   Clear
3:35 AM 35.6 °F 29.2 °F 28.4 °F 75% 29.94 in 10.0 mi North 8.1 mph - N/A   Clear
3:55 AM 35.6 °F 29.9 °F 28.4 °F 75% 29.94 in 10.0 mi NNE 6.9 mph - N/A   Clear
4:15 AM 35.6 °F 29.9 °F 28.4 °F 75% 29.93 in 10.0 mi NNE 6.9 mph - N/A   Clear
4:35 AM 35.6 °F 30.7 °F 28.4 °F 75% 29.93 in 10.0 mi NNE 5.8 mph - N/A   Clear
4:55 AM 35.6 °F 32.8 °F 28.4 °F 75% 29.93 in 10.0 mi NE 3.5 mph - N/A   Clear
5:15 AM 33.8 °F 28.6 °F 28.4 °F 81% 29.94 in 10.0 mi NW 5.8 mph - N/A   Clear
5:35 AM 33.8 °F 27.7 °F 26.6 °F 75% 29.95 in 10.0 mi WNW 6.9 mph - N/A   Clear
5:55 AM 32.0 °F 26.4 °F 24.8 °F 75% 29.95 in 10.0 mi NNW 5.8 mph - N/A   Clear
6:15 AM 32.0 °F 26.4 °F 26.6 °F 80% 29.95 in 10.0 mi North 5.8 mph - N/A   Clear
6:35 AM 32.0 °F 28.7 °F 26.6 °F 80% 29.96 in 10.0 mi North 3.5 mph - N/A   Clear
6:55 AM 32.0 °F 27.5 °F 26.6 °F 80% 29.95 in 10.0 mi North 4.6 mph - N/A   Clear
7:15 AM 32.0 °F 28.7 °F 26.6 °F 80% 29.95 in 10.0 mi NNE 3.5 mph - N/A   Clear
7:35 AM 32.0 °F - 28.4 °F 87% 29.95 in 10.0 mi Calm Calm - N/A   Clear
7:55 AM 33.8 °F - 26.6 °F 75% 29.95 in 10.0 mi Calm Calm - N/A   Clear
8:15 AM 33.8 °F - 26.6 °F 75% 29.96 in 10.0 mi Calm Calm - N/A   Scattered Clouds
8:35 AM 35.6 °F 32.8 °F 32.0 °F 87% 29.96 in 8.0 mi NE 3.5 mph - N/A   Overcast
8:55 AM 37.4 °F 32.8 °F 33.8 °F 87% 29.96 in 10.0 mi East 5.8 mph - N/A   Overcast
9:15 AM 39.2 °F 35.9 °F 35.6 °F 87% 29.96 in 2.0 mi ESE 4.6 mph - N/A   Overcast
9:35 AM 39.2 °F 34.2 °F 35.6 °F 87% 29.96 in 2.0 mi East 6.9 mph - N/A   Overcast
9:55 AM 39.2 °F 35.9 °F 35.6 °F 87% 29.96 in 5.0 mi East 4.6 mph - N/A   Overcast
10:15 AM 39.2 °F 34.2 °F 35.6 °F 87% 29.95 in 4.0 mi East 6.9 mph - N/A   Overcast
10:35 AM 39.2 °F 34.2 °F 35.6 °F 87% 29.95 in 8.0 mi ESE 6.9 mph - N/A   Overcast
10:55 AM 42.8 °F 41.1 °F 35.6 °F 76% 29.94 in 10.0 mi East 3.5 mph - N/A   Overcast
11:15 AM 44.6 °F 40.2 °F 37.4 °F 76% 29.93 in 10.0 mi ESE 8.1 mph - N/A   Mostly Cloudy
11:35 AM 46.4 °F 43.5 °F 37.4 °F 71% 29.92 in 10.0 mi East 5.8 mph - N/A   Clear
11:55 AM 48.2 °F - 37.4 °F 66% 29.90 in 10.0 mi SE 5.8 mph - N/A   Clear
12:15 PM 51.8 °F - 37.4 °F 58% 29.90 in 10.0 mi East 4.6 mph - N/A   Clear
12:35 PM 53.6 °F - 37.4 °F 54% 29.88 in 10.0 mi ESE 6.9 mph - N/A   Clear
12:55 PM 53.6 °F - 37.4 °F 54% 29.87 in 10.0 mi ESE 5.8 mph - N/A   Clear
1:15 PM 55.4 °F - 39.2 °F 54% 29.85 in 10.0 mi ESE 4.6 mph - N/A   Clear
1:35 PM 57.2 °F - 39.2 °F 51% 29.83 in 10.0 mi ESE 11.5 mph - N/A   Clear
1:55 PM 59.0 °F - 37.4 °F 45% 29.83 in 10.0 mi SSE 10.4 mph - N/A   Clear
2:15 PM 60.8 °F - 39.2 °F 45% 29.81 in 10.0 mi SE 6.9 mph 16.1 mph N/A   Clear
2:35 PM 60.8 °F - 39.2 °F 45% 29.80 in 10.0 mi East 9.2 mph - N/A   Clear
2:55 PM 62.6 °F - 39.2 °F 42% 29.79 in 10.0 mi East 10.4 mph - N/A   Clear
3:15 PM 64.4 °F - 39.2 °F 40% 29.78 in 10.0 mi East 13.8 mph - N/A   Clear
3:35 PM 64.4 °F - 39.2 °F 40% 29.77 in 10.0 mi ESE 9.2 mph - N/A   Clear
3:55 PM 64.4 °F - 39.2 °F 40% 29.76 in 10.0 mi East 11.5 mph - N/A   Clear
4:15 PM 66.2 °F - 39.2 °F 37% 29.75 in 10.0 mi ESE 9.2 mph - N/A   Clear
4:35 PM 66.2 °F - 39.2 °F 37% 29.75 in 10.0 mi ENE 8.1 mph - N/A   Clear
4:55 PM 64.4 °F - 39.2 °F 40% 29.75 in 10.0 mi East 10.4 mph - N/A   Clear
5:15 PM 64.4 °F - 39.2 °F 40% 29.75 in 10.0 mi ENE 8.1 mph - N/A   Clear
5:35 PM 62.6 °F - 39.2 °F 42% 29.73 in 10.0 mi NE 5.8 mph - N/A   Clear
5:55 PM 60.8 °F - 39.2 °F 45% 29.73 in 10.0 mi North 6.9 mph - N/A   Clear
6:15 PM 55.4 °F - 37.4 °F 51% 29.73 in 10.0 mi North 9.2 mph - N/A   Clear
6:35 PM 55.4 °F - 37.4 °F 51% 29.74 in 10.0 mi North 11.5 mph - N/A   Clear
6:55 PM 55.4 °F - 37.4 °F 51% 29.74 in 10.0 mi NNE 11.5 mph - N/A   Clear
7:15 PM 55.4 °F - 39.2 °F 54% 29.74 in 10.0 mi NE 8.1 mph - N/A   Clear
7:35 PM 53.6 °F - 37.4 °F 54% 29.74 in 10.0 mi North 9.2 mph - N/A   Clear
7:55 PM 53.6 °F - 37.4 °F 54% 29.73 in 10.0 mi NE 9.2 mph - N/A   Clear
8:15 PM 51.8 °F - 37.4 °F 58% 29.73 in 10.0 mi NNW 8.1 mph - N/A   Clear
8:35 PM 48.2 °F - 35.6 °F 62% 29.73 in 10.0 mi North 6.9 mph - N/A   Clear
8:55 PM 46.4 °F 41.9 °F 35.6 °F 66% 29.73 in 10.0 mi North 9.2 mph - N/A   Clear
9:15 PM 46.4 °F 41.9 °F 35.6 °F 66% 29.73 in 10.0 mi North 9.2 mph - N/A   Clear
9:35 PM 44.6 °F 41.4 °F 35.6 °F 71% 29.73 in 10.0 mi NNW 5.8 mph - N/A   Clear
9:55 PM 44.6 °F 40.2 °F 35.6 °F 71% 29.73 in 10.0 mi NNW 8.1 mph - N/A   Clear
10:15 PM 42.8 °F 39.3 °F 33.8 °F 70% 29.73 in 10.0 mi NW 5.8 mph - N/A   Clear
10:35 PM 42.8 °F 39.3 °F 35.6 °F 76% 29.73 in 10.0 mi WNW 5.8 mph - N/A   Clear
10:55 PM 42.8 °F 38.0 °F 33.8 °F 70% 29.73 in 10.0 mi NW 8.1 mph - N/A   Clear
11:15 PM 41.0 °F 35.8 °F 32.0 °F 70% 29.73 in 10.0 mi NW 8.1 mph - N/A   Clear
11:35 PM 39.2 °F 34.2 °F 32.0 °F 75% 29.73 in 10.0 mi NW 6.9 mph - N/A   Clear